[[{"header":{"parameterUnit":"m.s-1","parameterCategory":1,"la1":30.2991,"la2":30.254,"lo1":-89.0895,"lo2":-89.0444,"dy":0.0017,"dx":0.0017,"nx":28,"ny":28,"refTime":"2024-11-23T03:00:00:Z","depth":0,"parameterNumber":2,"parameterNumberName":"U-component_of_WINDS"},"data":[0,0,0,0,0,0,0,0,0,0,0,0,0,0,0,0,0,0,0,0,0,0,0,0,0,0,0,0,0,0,0,0,0,0,0,0,0,0,0,0,0,0,0,0,0,0,0,0,0,0,0,0,0,0,0,0,0,0,0.7134,0.7134,0,0.7147,0.7147,0.7147,0.7117,0.7116,0.7115,0.7114,0.7126,0.7127,0.7129,0,0,0,0,0,0,0,0,0,0,0,0,0,0.708,0.7082,0.7134,0.7134,0.7135,0.7147,0.7147,0.7148,0.7117,0.7116,0.7115,0.7114,0.7126,0.7127,0.7129,0,0,0,0,0,0,0,0,0,0,0,0,0,0.71,0.7082,0.7134,0.7121,0.712,0.7147,0.7147,0.7148,0.7117,0.7116,0.7114,0.7113,0.7125,0.7127,0.7129,0.7169,0,0,0.7134,0.7135,0,0,0,0,0,0,0,0,0.7099,0.7102,0.7123,0.7122,0.7121,0.7129,0.7133,0.7155,0.7118,0.7118,0.7114,0.7112,0.7128,0.713,0.7135,0.717,0.717,0.7135,0.7136,0.7137,0.7137,0,0,0,0,0,0,0,0.7097,0.7101,0.7139,0.7123,0.7122,0.7113,0.7115,0.7137,0.7131,0.7118,0.7116,0.7118,0.7127,0.7134,0.7135,0.7171,0.7135,0.7136,0.7137,0.7138,0.7237,0.7238,0,0,0,0,0,0,0.7098,0.71,0.7139,0.714,0.7106,0.7116,0.7117,0.7128,0.7131,0.713,0.7119,0.7116,0.7131,0.7133,0.7136,0.7181,0.7137,0.7138,0.7139,0.7235,0.7237,0.7239,0,0,0,0,0,0,0.7097,0.7102,0.7138,0.7119,0.7123,0.7118,0.7131,0.7129,0.7135,0.7132,0.713,0.7127,0.713,0.7133,0.7161,0.7181,0.7139,0.7141,0.7233,0.7236,0.7238,0.7274,0,0,0,0,0,0,0.7096,0.7102,0.7118,0.712,0.7124,0.7164,0.7132,0.713,0.7138,0.7135,0.7138,0.7138,0.7129,0.7158,0.7163,0.7183,0.7142,0.7231,0.7234,0.7237,0.7271,0.7277,0.7283,0,0,0,0,0,0.7094,0.7128,0.7119,0.7123,0.7144,0.7165,0.7168,0.7158,0.714,0.7155,0.7153,0.7137,0.7179,0.7161,0.7166,0.7187,0.723,0.7234,0.7237,0.7268,0.7276,0.7283,0,0,0,0,0,0,0.7128,0.7128,0.7118,0.7153,0.716,0.716,0.7179,0.7167,0.7178,0.7174,0.7161,0.7162,0.7191,0.7192,0.7173,0.7226,0.7201,0.7206,0.7224,0.7231,0.7237,0.7235,0.7144,0,0,0,0,0,0.714,0.7157,0.7156,0.7188,0.7191,0.7185,0.7194,0.7185,0.7191,0.7193,0.7193,0.7199,0.7213,0.7222,0.7235,0.7272,0.7271,0.7289,0.7294,0.7299,0.7303,0.732,0.7327,0.725,0.725,0.725,0,0,0.7164,0.7166,0.7178,0.7194,0.7198,0.7215,0.7187,0.7207,0.722,0.7196,0.7222,0.7222,0.7227,0.7259,0.7273,0.726,0.7324,0.7304,0.7308,0.7308,0.7324,0.7332,0.7338,0.7252,0.7252,0.7251,0,0,0.7217,0.7221,0.7247,0.7251,0.7257,0.7252,0.7258,0.726,0.7259,0.7285,0.7267,0.7281,0.7307,0.731,0.7316,0.7368,0.7354,0.7373,0.7403,0.742,0.7426,0.7431,0.7448,0.7455,0.7377,0.7377,0.7377,0,0.7246,0.7272,0.7261,0.7282,0.7289,0.7269,0.7293,0.7298,0.7308,0.7313,0.7299,0.7329,0.7331,0.7362,0.7375,0.7381,0.7386,0.7372,0.7426,0.7431,0.7436,0.7452,0.7459,0.7379,0.7379,0.7379,0.7379,0,0.7306,0.7324,0.7344,0.7354,0.7363,0.7386,0.7378,0.7389,0.7379,0.7376,0.7401,0.7403,0.7415,0.7422,0.7414,0.7452,0.7444,0.7429,0.7403,0.7446,0.746,0.7467,0.7382,0.7382,0.7381,0.738,0,0,0.7381,0.7383,0.739,0.7393,0.7398,0.7411,0.7433,0.7445,0.7453,0.746,0.7477,0.7498,0.7483,0.7489,0.7481,0.7496,0.7535,0.7479,0.7478,0.7487,0.7575,0.7585,0.7592,0.7526,0.7527,0.7528,0.7573,0,0.7431,0.7467,0.7458,0.7494,0.7509,0.749,0.7508,0.7512,0.7509,0.7521,0.7518,0.7532,0.7513,0.7516,0.7531,0.7527,0.7552,0.7524,0.7539,0.754,0.7537,0.76,0.7611,0.7654,0.7579,0.758,0.7581,0,0.7494,0.7503,0.7541,0.7541,0.7547,0.7564,0.7572,0.7585,0.7589,0.7585,0.7592,0.758,0.7599,0.7576,0.7602,0.7583,0.7589,0.7588,0.7589,0.7589,0.7562,0.7599,0.7667,0.7673,0.759,0.759,0.7589,0,0.7542,0.7564,0.7588,0.7592,0.7593,0.7605,0.7606,0.7608,0.7615,0.7623,0.7627,0.7638,0.7643,0.7651,0.7642,0.7625,0.7668,0.7644,0.7665,0.7665,0.7673,0.7673,0.7741,0.768,0.768,0.768,0.768,0,0.7598,0.7621,0.7609,0.7624,0.7649,0.7637,0.7662,0.7661,0.7663,0.7676,0.7661,0.7674,0.7662,0.7673,0.7667,0.7688,0.7691,0.7688,0.7685,0.7688,0.7688,0.769,0.7687,0.7682,0.7682,0.7681,0.7681,0,0.7655,0.7648,0.7673,0.7672,0.7672,0.769,0.7689,0.7702,0.7698,0.7715,0.7718,0.7712,0.7725,0.7717,0.773,0.7725,0.7752,0.7747,0.7751,0.7749,0.7769,0.7766,0.784,0.7848,0.7784,0.7785,0.7785,0,0.769,0.7707,0.7707,0.7715,0.7717,0.773,0.7737,0.7726,0.7734,0.7739,0.7751,0.7762,0.7771,0.7792,0.7788,0.7797,0.7791,0.7816,0.7792,0.7794,0.7788,0.7787,0.7788,0.782,0.7821,0.7821,0.7822,0,0.7752,0.7748,0.7758,0.7767,0.7775,0.7782,0.7787,0.7795,0.7784,0.7793,0.7805,0.7812,0.7825,0.7836,0.7844,0.7844,0.7831,0.783,0.7835,0.7837,0.7837,0.7835,0.7762,0.7828,0.7827,0.7827,0.7826,0.7826,0.7798,0.7811,0.7813,0.7824,0.7827,0.7832,0.7844,0.7841,0.7851,0.7861,0.7854,0.7868,0.787,0.7879,0.7881,0.7892,0.7882,0.7889,0.7891,0.7893,0.7894,0.7837,0.7894,0.7894,0.7893,0.7893,0.7893,0,0.7857,0.7857,0.7868,0.7875,0.7884,0.7872,0.7876,0.7884,0.7897,0.7901,0.7909,0.7922,0.7933,0.7929,0.7938,0.7947,0.7941,0.795,0.7948,0.7948,0.7904,0.7898,0.7954,0.7954,0.7954,0.7954,0.7954,0.7954,0.7889,0.791,0.7906,0.7928,0.7928,0.7941,0.7945,0.7949,0.7951,0.7967,0.7975,0.7973,0.7973,0.7982,0.799,0.7989,0.7992,0.8003,0.7999,0.7958,0.7951,0.7946,0.794,0.8004,0.8004,0.8042,0.8042,0.8042]},{"header":{"parameterUnit":"m.s-1","parameterCategory":1,"la1":30.2991,"la2":30.254,"lo1":-89.0895,"lo2":-89.0444,"dy":0.0017,"dx":0.0017,"nx":28,"ny":28,"refTime":"2024-11-23T03:00:00:Z","depth":0,"parameterNumber":3,"parameterNumberName":"V-component_of_WINDS"},"data":[0,0,0,0,0,0,0,0,0,0,0,0,0,0,0,0,0,0,0,0,0,0,0,0,0,0,0,0,0,0,0,0,0,0,0,0,0,0,0,0,0,0,0,0,0,0,0,0,0,0,0,0,0,0,0,0,0,0,3.462,3.4621,0,3.4655,3.4655,3.4655,3.4583,3.458,3.4578,3.4576,3.461,3.4613,3.4616,0,0,0,0,0,0,0,0,0,0,0,0,0,3.4488,3.4491,3.462,3.4621,3.4621,3.4655,3.4655,3.4656,3.4583,3.458,3.4577,3.4575,3.4609,3.4613,3.4616,0,0,0,0,0,0,0,0,0,0,0,0,0,3.4536,3.4492,3.462,3.4589,3.4587,3.4655,3.4655,3.4656,3.4584,3.458,3.4577,3.4573,3.4608,3.4612,3.4617,3.4717,0,0,3.4631,3.4633,0,0,0,0,0,0,0,0,3.4534,3.4541,3.4593,3.4591,3.4589,3.4611,3.4621,3.4676,3.4585,3.4585,3.4576,3.4572,3.4613,3.4617,3.4631,3.4718,3.472,3.4632,3.4634,3.4636,3.4638,0,0,0,0,0,0,0,3.453,3.4539,3.4634,3.4594,3.4591,3.4572,3.4575,3.4631,3.4618,3.4584,3.4579,3.4584,3.4611,3.4627,3.4632,3.472,3.4632,3.4636,3.4639,3.464,3.4885,3.4889,0,0,0,0,0,0,3.4531,3.4537,3.4633,3.4635,3.4552,3.4577,3.4581,3.4607,3.4618,3.4616,3.4587,3.4581,3.4621,3.4626,3.4633,3.4746,3.4636,3.4641,3.4644,3.4881,3.4886,3.489,0,0,0,0,0,0,3.4529,3.4541,3.4631,3.4584,3.4595,3.4583,3.4614,3.461,3.4625,3.462,3.4617,3.4606,3.4618,3.4626,3.4695,3.4746,3.4643,3.4647,3.4877,3.4883,3.4888,3.4976,0,0,0,0,0,0,3.4525,3.454,3.4579,3.4586,3.4597,3.4695,3.4617,3.4613,3.4634,3.4626,3.4636,3.4635,3.4616,3.4688,3.47,3.4751,3.4651,3.4872,3.488,3.4886,3.4968,3.4983,3.4997,0,0,0,0,0,3.4521,3.4603,3.4581,3.4593,3.4646,3.4698,3.4704,3.4681,3.4638,3.4676,3.4672,3.4634,3.4739,3.4696,3.4708,3.4761,3.4869,3.4877,3.4886,3.4962,3.498,3.4996,0,0,0,0,0,0,3.4603,3.4604,3.4579,3.4667,3.4683,3.4685,3.4733,3.4703,3.4731,3.4722,3.4692,3.4695,3.4769,3.4772,3.4724,3.4856,3.4797,3.4808,3.485,3.4868,3.4882,3.4878,3.4655,0,0,0,0,0,3.4632,3.4675,3.4672,3.475,3.4759,3.4745,3.4766,3.4747,3.4762,3.4768,3.4769,3.4785,3.482,3.4845,3.4878,3.4969,3.4968,3.5011,3.5025,3.5037,3.5046,3.509,3.5108,3.4917,3.4917,3.4917,0,0,3.4691,3.4696,3.4725,3.4766,3.4776,3.4819,3.4751,3.4801,3.4831,3.4776,3.484,3.4841,3.4856,3.4936,3.4971,3.4941,3.5099,3.5048,3.5057,3.506,3.51,3.5118,3.5134,3.4923,3.4922,3.4921,0,0,3.4819,3.483,3.4892,3.4903,3.4919,3.4908,3.4923,3.493,3.4928,3.4992,3.495,3.4986,3.505,3.5061,3.5075,3.5205,3.517,3.5217,3.529,3.5333,3.5348,3.5361,3.5403,3.5419,3.5226,3.5226,3.5227,0,3.489,3.4954,3.4929,3.498,3.4997,3.4949,3.501,3.5022,3.5048,3.506,3.5027,3.5103,3.511,3.5189,3.522,3.5235,3.5248,3.5214,3.5348,3.5361,3.5373,3.5412,3.5429,3.5232,3.5231,3.523,3.523,0,3.5039,3.5084,3.5132,3.5157,3.518,3.5237,3.5218,3.5244,3.5222,3.5215,3.5278,3.5285,3.5316,3.5334,3.5315,3.541,3.539,3.5353,3.5293,3.5396,3.5433,3.5449,3.5239,3.5237,3.5236,3.5234,0,0,3.5221,3.5228,3.5246,3.5254,3.5266,3.53,3.5353,3.5383,3.5404,3.5424,3.5465,3.5519,3.5483,3.5499,3.548,3.5518,3.5615,3.5476,3.5476,3.5498,3.5715,3.574,3.5758,3.5593,3.5596,3.5598,3.5712,0,3.5344,3.5435,3.5412,3.5501,3.5539,3.5492,3.5538,3.5549,3.5543,3.5574,3.5568,3.5604,3.5557,3.5566,3.5602,3.5596,3.5657,3.5587,3.5628,3.563,3.5623,3.5778,3.5806,3.5913,3.5727,3.573,3.5731,0,3.5501,3.5524,3.5617,3.5618,3.5634,3.5675,3.5698,3.573,3.5741,3.5733,3.575,3.5722,3.5772,3.5713,3.5779,3.5732,3.5748,3.5747,3.5751,3.5751,3.5685,3.5779,3.5948,3.5962,3.5754,3.5753,3.5751,0,3.5619,3.5674,3.5734,3.5744,3.5749,3.5778,3.5781,3.5789,3.5807,3.5828,3.5838,3.5866,3.588,3.59,3.5879,3.5839,3.5948,3.5888,3.5941,3.5941,3.5963,3.5962,3.6133,3.598,3.5979,3.5979,3.5979,0,3.5758,3.5815,3.5787,3.5824,3.5886,3.5858,3.592,3.5918,3.5924,3.5959,3.5921,3.5955,3.5927,3.5957,3.5941,3.5996,3.6004,3.5998,3.5992,3.5999,3.5999,3.6007,3.5997,3.5983,3.5982,3.5982,3.5981,0,3.5899,3.5883,3.5945,3.5944,3.5945,3.599,3.5988,3.6021,3.6012,3.6056,3.6065,3.605,3.6083,3.6065,3.61,3.6089,3.6159,3.6146,3.6155,3.615,3.6202,3.6196,3.6381,3.6402,3.6239,3.6241,3.6242,0,3.5987,3.603,3.6032,3.6051,3.6057,3.609,3.6108,3.6082,3.6101,3.6115,3.6146,3.6176,3.6198,3.6253,3.6245,3.6271,3.6255,3.6318,3.6259,3.6263,3.6251,3.6247,3.625,3.6329,3.6331,3.6333,3.6334,0,3.6144,3.6132,3.6159,3.6182,3.6203,3.6221,3.6235,3.6253,3.6227,3.6251,3.6283,3.6301,3.6335,3.6364,3.6385,3.6387,3.6355,3.6353,3.6366,3.6372,3.6374,3.6369,3.6184,3.6348,3.6347,3.6346,3.6345,3.6344,3.6258,3.6292,3.6297,3.6327,3.6334,3.6347,3.6377,3.637,3.6397,3.6422,3.6405,3.6443,3.645,3.6475,3.6481,3.6509,3.6484,3.6503,3.6508,3.6512,3.6517,3.6372,3.6514,3.6513,3.6513,3.6512,3.6512,0,3.6409,3.6409,3.6437,3.6456,3.6479,3.6447,3.646,3.648,3.6514,3.6523,3.6544,3.658,3.6608,3.6601,3.6625,3.6649,3.6634,3.6656,3.6652,3.6652,3.6541,3.6525,3.6666,3.6666,3.6666,3.6666,3.6666,3.6666,3.649,3.6543,3.6532,3.6589,3.6588,3.6624,3.6634,3.6645,3.6651,3.6692,3.6714,3.6709,3.6711,3.6734,3.6757,3.6754,3.6763,3.6789,3.6781,3.6676,3.6661,3.6646,3.6631,3.6792,3.6793,3.6889,3.689,3.6891]}]]